Other Public Products
Issued by NWS Grand Forks, ND

Home | Current Version | Previous Version | Graphics & Text | Print | Product List | Glossary On
Versions: 1 2 3 4 5 6 7 8 9 10 11 12 13 14 15 16 17 18 19 20 21 22 23 24 25 26 27 28 29 30 31 32 33 34 35 36 37 38 39 40 41 42 43 44 45 46 47 48 49 50
502
FPUS83 KFGF 031110
OPUFGF
PRAIRIE TO PINES WEATHER ROUNDUP
NATIONAL WEATHER SERVICE EASTERN NORTH DAKOTA/GRAND FORKS ND
500 AM CST SAT DEC 03 2016

 **SATELLITE DATA USED TO AUGMENT SKY COVER AT AUTOMATED STATIONS**
 *****  WEATHER ACROSS EASTERN NORTH DAKOTA  *****

CITY           SKY/WX    TMP DP  RH WIND       PRES   REMARKS
GRAND FORKS    CLOUDY    28  20  71 S15       30.20  WCI  16
GRAND FORKS AF CLOUDY    26  20  78 S12       30.19F WCI  15
GRAND CITY NWS   N/A     27 N/A N/A S15         N/A  WCI  15
BUXTON         NOT AVBL
DEVILS LAKE    CLOUDY    26  24  92 S14       30.11F WCI  14
FARGO          CLOUDY    27  18  69 S9        30.24  WCI  18
WAHPETON ARPT  CLOUDY    27  19  74 S5        30.26F WCI  21
$$

 *****  WEATHER ACROSS CENTRAL AND WESTERN NORTH DAKOTA  *****

CITY           SKY/WX    TMP DP  RH WIND       PRES   REMARKS
JAMESTOWN      CLOUDY    26  22  84 S13       30.14F WCI  15
BISMARCK       CLEAR     18  17  96 SE9       30.07F WCI   7
MINOT          CLEAR     22  20  92 SE7       29.95F WCI  13
MINOT AFB      CLEAR     21  19  91 S13       29.95F WCI   8
GARRISON         N/A     25  24  96 S6        29.99F WCI  18
WILLISTON      CLEAR     23  18  81 S7        29.88F WCI  15
DICKINSON      CLEAR     17  14  88 S12       29.91F WCI   4
HETTINGER      CLEAR     19  16  88 SE8       29.97  WCI   9
$$

 *****  OTHER OBSERVATIONS NORTHEAST NORTH DAKOTA  *****

CITY           SKY/WX    TMP DP  RH WIND       PRES   REMARKS
WALHALLA         N/A     27  27 100 S12G18    30.13F WCI  16
LANGDON        CLOUDY    25  23  93 S17       30.08F WCI  11
CAVALIER         N/A     27  23  86 S15       30.16F WCI  15
GRAFTON        CLOUDY    27  23  86 S10       30.20F WCI  17
CANDO          CLOUDY    27  25  93 S21       30.09F WCI  13
FORT TOTTEN      N/A     25  24  98 S10       29.95S WCI  15
ROLLA          CLOUDY    23  23 100 S13       30.03F WCI  11
RUGBY            N/A     25  25 100 S13G20    30.04F FOG     WCI  13
 ***** THE ABOVE OBSERVATIONS ARE NON NWS ARE NOT QUALITY
        CONTROLLED AND MAY MIS-REPORT RAIN FOR SNOW...
$$

 *****  OTHER OBSERVATIONS SOUTHEAST NORTH DAKOTA *****

CITY           SKY/WX    TMP DP  RH WIND       PRES   REMARKS
COOPERSTOWN    CLOUDY    25  23  93 S10       30.16F WCI  15
VALLEY CITY    CLOUDY    25  25 100 S9        30.19S WCI  15
OAKES          NOT AVBL
GWINNER        CLOUDY    28  27  93 SE7       30.21F WCI  21
SHEYENNE NWR     N/A     25  20  81 S2        29.95S
BUFFALO        NOT AVBL
WYNDMERE       NOT AVBL
 ***** THE ABOVE OBSERVATIONS ARE NON NWS ARE NOT QUALITY
       CONTROLLED AND MAY MIS-REPORT RAIN FOR SNOW...
$$

  *****  WEATHER ACROSS NORTHERN MINNESOTA  *****

CITY           SKY/WX    TMP DP  RH WIND       PRES   REMARKS
FLAG ISLAND    CLOUDY    25  19  80 S3        30.19F
WARROAD        CLOUDY    27  21  80 S5        30.20F WCI  21
ROSEAU         CLOUDY    28  23  80 S6        30.19F WCI  22
HALLOCK        CLOUDY    28  25  86 S13       30.18F WCI  18
THF RVR FALLS  CLOUDY    26  20  77 SW12      30.22F WCI  16
HALSTAD          N/A     25  19  78 S9          N/A  WCI  16
FOSSTON        CLOUDY    23  18  80 S12       30.23F WCI  12
BAUDETTE       CLOUDY    24  21  88 S5        30.21  WCI  18
WASKISH        CLOUDY    25  21  86 CALM      30.22F
CROOKSTON      NOT AVBL
$$
  *****  WEATHER ACROSS CENTRAL AND WEST MINNESOTA  *****

CITY           SKY/WX    TMP DP  RH WIND       PRES   REMARKS
BEMIDJI        CLOUDY    24  18  79 S5        30.23S WCI  18
PARK RAPIDS    CLOUDY    24  16  71 SW5       30.22  WCI  18
WADENA         CLOUDY    23  18  80 SW3       30.24F
DETROIT LAKES  NOT AVBL
MOORHEAD       CLOUDY    25  18  74 S7        30.25F WCI  17
FERGUS FALLS   CLOUDY    25  18  74 S7        30.29F WCI  17
ELBOW LAKE     CLOUDY    24  18  78 SW5       30.26F WCI  18
MORRIS MN      CLOUDY    27  19  74 S5        30.27S WCI  21
STAPLES        CLOUDY    23  18  80 SW3       30.26S
WHEATON        NOT AVBL
$$
  *****  WEATHER ELSEWHERE ACROSS MINNESOTA  *****

CITY           SKY/WX    TMP DP  RH WIND       PRES   REMARKS
DULUTH         CLOUDY    27  24  89 W5        30.22F WCI  22
INTRNTL FALLS  CLOUDY    24  20  84 SW7       30.22F WCI  16
ELY            CLOUDY    23  21  93 CALM      30.22S
CLOQUET        CLOUDY    27  21  80 CALM      30.24S
BRAINERD       CLOUDY    25  20  81 SW6       30.26S WCI  18
HIBBING        CLOUDY    23  19  85 W5        30.24S WCI  17
ALEXANDRIA     CLOUDY    24  19  81 W8        30.26  WCI  15
SAINT CLOUD    CLOUDY    28  22  78 SW7       30.29  WCI  21
MINNEAPOLIS    CLOUDY    29  21  72 W7        30.31  WCI  22
$$

  *****  WEATHER ACROSS SOUTH DAKOTA  *****

CITY           SKY/WX    TMP DP  RH WIND       PRES   REMARKS
SIOUX FALLS    CLOUDY    31  27  85 S6        30.27F
BROOKINGS      CLOUDY    25  21  85 SE8       30.24F WCI  16
WATERTOWN      CLOUDY    20  17  88 S6        30.22  WCI  12
HURON          CLEAR     24  23  96 SE8       30.22F WCI  15
SISSETON         N/A     22  17  81 S5        30.24S WCI  16
ABERDEEN       CLOUDY    28  24  85 S10       30.21  WCI  19
MITCHELL       CLEAR     27  26  96 SE10      30.24F WCI  17
PIERRE         CLEAR     20  18  92 SE8       30.11F WCI  10
MOBRIDGE       CLOUDY    26  24  92 S13       30.08F WCI  15
RAPID CITY     CLEAR     21  17  84 S7        29.97F WCI  12
$$

  *****  SOME WEATHER IN NEARBY STATES *****

CITY           SKY/WX    TMP DP  RH WIND       PRES   REMARKS
GLASGOW MT     LGT SNOW  27  24  89 SW3       29.80F FOG
GREAT FALLS MT CLOUDY    32  22  66 SW20      29.81  WCI  20
CHEYENNE WY    CLOUDY    16   9  74 W12       30.00F WCI   3
SCOTTSBLUFF NE CLOUDY    27  21  78 W5        30.07F WCI  22
OMAHA NE       PTCLDY    24  19  81 CALM      30.33F
DES MOINES IA  CLOUDY    36  29  75 W6        30.35S
DAVENPORT IA   CLOUDY    32  25  75 NW9       30.37S WCI  24
CHICAGO IL     CLOUDY    32  23  69 W9        30.34R WCI  24
EAU CLAIRE WI  CLOUDY    30  25  81 SW8       30.29R WCI  22
LA CROSSE WI   CLOUDY    32  22  66 W7        30.34
$$

  *****  SOME NATIONAL WEATHER *****

CITY           SKY/WX    TMP DP  RH WIND       PRES   REMARKS
LA GUARDIA NY  PTCLDY    43  28  55 NW21G30   29.96R
RALEIGH NC     CLOUDY    36  28  73 CALM      30.23S
ATLANTA GA     MOCLDY    42  32  67 W5        30.26R
NEW ORLEANS LA CLOUDY    57  51  80 E13       30.10F
OKLAHOMA CITY  LGT RAIN  46  44  93 E7        30.18F
ALBUQUERQUE NM FLURRIES  33  31  92 E3        30.07F
SALT LAKE CITY CLOUDY    28  19  69 SE10      30.28S WCI  19
LOS ANGELES CA CLEAR     49  19  30 E3        30.08F
BOISE ID       CLOUDY    34  23  64 E6        30.24
SEATTLE WA     MOCLDY    45  42  89 SW14      30.22S
$$

*** WEATHER ACROSS MANITOBA...SASKATCHEWAN AND ONTARIO ***
                ***ONTARIO***

CITY           SKY/WX    TMP DP  RH WIND       PRES   REMARKS
GERALDTON      LGT SNOW  21  21 100 VRB2      30.21S
THUNDER BAY    CLOUDY    27  25  93 W2        30.25S
SIOUX LOOKOUT  FLURRIES  23  19  86 VRB2      30.20S
TORONTO        PTCLDY    36  28  75 NW12      30.12R
BIG TROUT LK   LGT SNOW   7   5  92 W3        30.25S
PICKLE LAKE    FLURRIES  18  16  93 SE2       30.21
DRYDEN         CLOUDY    19  18  93 SW8       30.20S WCI   9
KENORA         FLURRIES  19  19 100 CALM      30.18F
$$
                *** MANITOBA***

CITY           SKY/WX    TMP DP  RH WIND       PRES   REMARKS
BRANDON        FLURRIES  25  23  93 SE9       30.00F WCI  15
DAUPHIN        FLURRIES  28  25  86 E6        29.98F WCI  22
ISLAND LAKE    NOT AVBL
PILOT MOUND      N/A     25  23  93 S20         N/A  WCI  11
THE PAS        FLURRIES  28  27  93 SE14      29.96F WCI  17
THOMPSON       CLOUDY    16  14  93 VRB2      30.09F
WINNIPEG       FLURRIES  27  25  93 S12       30.15F WCI  16
LYNN LAKE      CLOUDY    19  19 100 S7        29.94F WCI  10
CHURCHILL      CLEAR      1  -2  85 SW9       30.14F WCI -14
GILLAM         FLURRIES   0  -4  85 S3        30.18F
$$
                ***SASKATCHEWAN***

CITY           SKY/WX    TMP DP  RH WIND       PRES   REMARKS
ESTEVAN        PTCLDY    23  19  86 S8        29.86F WCI  14
KINDERSLEY     PTCLDY    16  14  93 N7        29.62F WCI   6
LLOYDMINSTER   CLOUDY    21  21 100 S5        29.69R WCI  15
PRINCE ALBERT  FLURRIES  27  23  86 E10       29.77F WCI  17
REGINA         PTCLDY    18  16  93 SE13      29.76F WCI   4
YORKTON        CLOUDY    27  25  93 SE14G20   29.86F FOC1F1C2F2C3F3C4F4C5F5C6F6C7F7C8F8C9F9CaFaCbFbCcFcCdFdCe!



USA.gov is the U.S. government's official web portal to all federal, state and local government web resources and services.